Regional Weather Roundup
Issued by NWS Charleston, SC

Current Version | Previous Version | Text Only | Print | Product List | Glossary Off
Versions: 1 2 3 4 5 6 7 8 9 10 11 12 13 14 15 16 17 18 19 20 21 22 23 24 25 26 27 28 29 30 31 32 33 34 35 36 37 38 39 40 41 42 43 44 45 46 47 48 49 50

000
ASUS42 KCHS 011010
RWRCHS
REGIONAL WEATHER ROUNDUP
NATIONAL WEATHER SERVICE CHARLESTON SC
600 AM EDT FRI AUG 01 2014

NOTE: "FAIR" INDICATES FEW OR NO CLOUDS BELOW 12,000 FEET WITH NO
SIGNIFICANT WEATHER AND/OR OBSTRUCTIONS TO VISIBILITY.

NOT ALL STATIONS ARE QUALITY CONTROLLED BY THE NATIONAL
WEATHER SERVICE. USE DATA WITH CAUTION...ESPECIALLY
DEWPOINT OBSERVATIONS.

SCZ027-030-031-034>040-042>050-011100-
...SOUTH CAROLINA...

CITY           SKY/WX    TMP DP  RH WIND       PRES   REMARKS
N CHARLESTON   MOCLDY    75  72  90 NE3       29.98S
WATERFRONT PRK   N/A     79 N/A N/A N7          N/A
FORT JOHNSON   NOT AVBL
MOUNT PLEASANT FAIR      73  73 100 CALM      29.98S FOG
JOHNS ISLAND   PTSUNNY   75  70  83 CALM      29.98S HAZE
PINOPOLIS        N/A     75  73  94 E5        29.90F
MONCKS CORNER  NOT AVBL
SUMMERVILLE    FAIR      70  70 100 CALM      29.99S
BEAUFORT MCAS    N/A     74  73  97 MISG      29.98R
BEAUFORT ARPT  NOT AVBL
HILTON HEAD IS NOT AVBL
GEORGETOWN     NOT AVBL
WALTERBORO     FOG       72 N/A N/A CALM      30.00R VSB 1/2
ORANGEBURG     MOCLDY    72  69  90 E3        30.01R
BARNWELL       CLOUDY    73  72  94 E3        30.01S
AIKEN          CLOUDY    70  70 100 N5        30.06R FOG
MANNING        FAIR      72 N/A N/A CALM      30.00S
KINGSTREE      NOT AVBL
COLUMBIA       CLOUDY    73  69  87 N5        30.01S
SUMTER         CLOUDY    72  72 100 E6        29.99F
FLORENCE       CLOUDY    73  71  93 E7        30.01F
MYRTLE BEACH   CLOUDY    77  72  83 S14       30.00F
N MYRTLE BEACH CLOUDY    78  72  81 S9        30.01R

$$

GAZ063-065-086>088-099>101-113>116-118-119-134-136>141-150-011100-
...GEORGIA...

CITY           SKY/WX    TMP DP  RH WIND       PRES   REMARKS
SAVANNAH ARPT  FOG       75  73  93 CALM      29.98R VSB 1/2
HUNTER AAF     CLOUDY    75  75 100 N5        29.96R FOG
FORT STEWART   CLOUDY    74  73  97 N2        29.97R FOG
STATESBORO     NOT AVBL
SYLVANIA       CLOUDY    74  74 100 CALM      30.00S FOG
CLAXTON        FOG      N/A N/A N/A CALM      29.98S VSB 1
THOMSON        CLOUDY    70  70 100 N6        30.09R
AUGUSTA-BUSH   CLOUDY    72  69  90 N6        30.02R
AUGUSTA-DANIEL CLOUDY    70  69  97 N9        30.04R FOG
SWAINSBORO     CLOUDY    77  77 100 CALM      30.01S
VIDALIA        FOG       73  73 100 N3        29.99S VSB 1/2
ALMA           MOCLDY    73  70  90 CALM      29.97S
WAYCROSS       PTCLDY    76  74  93 CALM      29.97R
JESUP          FAIR      77  73  88 CALM      29.97R
BRUNSWICK      PTCLDY    77  73  88 CALM      29.96R
SAINT SIMONS   PTCLDY    82  75  79 CALM      29.95R

$$

SCZ027-028-034-036>038-045-046-048>050-GAZ119-141-011100-
...LAKE AND SUPPLEMENTAL COASTAL OBSERVATIONS...

STATION/POSITION TIME  TEMP    WIND        PRES    WAVE   SWELL
                       AIR SEA DIR/SP/G            HT/PER HT/PER/DIR
                 (UTC) (F)     (DEG/KT/KT) (MB)    (FT/S) (FT/S/D)
UPR LAKE MARION  NOT AVBL
WINYAH BAY       0900   79     120/ 12     1015.0S
LAKE MURRAY      0900   69     360/  4/  6 1015.9F
ACE BASIN NERRS  0900   72     360/  2     1015.0S
FORT PULASKI     1000   78     360/  5/  7 1014.8R
SAPELO ISLAND    0900   81     140/  3     1014.0F

$$

ANZ835-935-AMZ111-154-330-350-352-354-374-450-454-472-011100-
...C-MAN AND BUOY OBSERVATIONS...

STATION/POSITION TIME  TEMP    WIND        PRES    WAVE   SWELL
                       AIR SEA DIR/SP/G            HT/PER HT/PER/DIR
                 (UTC) (F)     (DEG/KT/KT) (MB)    (FT/S) (FT/S/D)
FOLLY BEACH CMAN 0900   76     330/  5/  6 1015.4F
BUOY 41004       1000   78 83  230/ 10/ 14 1014.9R   4/ 5   3/ 5
BUOY 41008       1000   83 85  180/  8/ 12 1014.3R   2/ 7   2/ 90/ 7
5E ST. MARYS GA  0900      85                N/A     3/ 4
FRYING PAN BUOY  NOT AVBL
BUOY 41025       1000          VRB 16/ 17  1018.4F   4/ 6   2/100/ 8
CAPE LOOKOUT NC  0900   80      90/ 16/ 18 1017.7F
BUOY 41002       0940   81 81  160/ 12/ 14 1018.6R   4/ 7   3/110/ 7
BUOY 41010       1000   83 84  160/ 12/ 14 1015.4R   3/ 5   2/ 40/ 7
BUOY 41012       NOT AVBL
ST AUGUSTINE FL  1000   78     200/  5/  6 1014.6R
CAPERS NEARSHORE 0900   81     320/  4/  6   N/A
FRIPP NEARSHORE  NOT AVBL


$$



USA.gov is the U.S. government's official web portal to all federal, state and local government web resources and services.